TimeCST,TemperatureF,Dew PointF,Humidity,Sea Level PressureIn,VisibilityMPH,Wind Direction,Wind SpeedMPH,Gust SpeedMPH,PrecipitationIn,Events,Conditions,WindDirDegrees,DateUTC
12:51 AM,43.0,37.0,80,30.15,10.0,NNE,10.4,-,N/A,,Overcast,30,2014-03-04 06:51:00
1:51 AM,43.0,37.9,82,30.14,10.0,North,8.1,18.4,N/A,,Overcast,10,2014-03-04 07:51:00
2:51 AM,42.1,37.0,82,30.14,10.0,NNE,8.1,-,N/A,,Overcast,30,2014-03-04 08:51:00
3:51 AM,42.1,37.9,85,30.14,10.0,NNE,10.4,-,N/A,,Overcast,30,2014-03-04 09:51:00
4:51 AM,42.1,37.9,85,30.15,9.0,Variable,5.8,-,N/A,,Overcast,0,2014-03-04 10:51:00
5:51 AM,42.1,37.9,85,30.13,10.0,NNE,11.5,-,N/A,,Overcast,30,2014-03-04 11:51:00
6:51 AM,43.0,37.0,80,30.15,9.0,NE,8.1,-,N/A,,Overcast,40,2014-03-04 12:51:00
7:51 AM,43.0,37.9,82,30.16,8.0,NE,6.9,-,N/A,,Overcast,40,2014-03-04 13:51:00
8:51 AM,43.0,37.9,82,30.17,8.0,NNE,9.2,-,N/A,,Overcast,30,2014-03-04 14:51:00
9:51 AM,44.1,37.9,79,30.19,8.0,NNE,9.2,-,N/A,,Overcast,20,2014-03-04 15:51:00
10:51 AM,44.1,37.9,79,30.19,8.0,North,10.4,17.3,N/A,,Overcast,10,2014-03-04 16:51:00
11:51 AM,45.0,39.0,80,30.15,8.0,NE,10.4,17.3,N/A,,Overcast,40,2014-03-04 17:51:00
12:43 PM,45.0,39.0,80,30.17,7.0,NNE,8.1,-,N/A,,Overcast,20,2014-03-04 18:43:00
12:51 PM,45.0,39.0,80,30.17,7.0,NNE,8.1,-,N/A,,Overcast,30,2014-03-04 18:51:00
1:33 PM,45.0,39.9,82,30.14,5.0,NNE,8.1,-,0.00,Rain,Light Rain,30,2014-03-04 19:33:00
1:51 PM,44.1,39.9,85,30.12,2.5,ENE,11.5,-,0.00,Rain,Light Rain,60,2014-03-04 19:51:00
2:00 PM,44.1,41.0,89,30.11,1.8,NE,9.2,-,0.05,Rain,Rain,40,2014-03-04 20:00:00
2:16 PM,44.1,41.0,89,30.09,3.0,NE,11.5,-,0.10,Rain,Light Rain,40,2014-03-04 20:16:00
2:51 PM,44.1,41.0,89,30.09,6.0,NE,10.4,-,0.10,Rain,Light Rain,50,2014-03-04 20:51:00
3:51 PM,45.0,41.0,86,30.06,4.0,NE,9.2,-,0.00,Rain,Light Rain,50,2014-03-04 21:51:00
4:04 PM,44.1,41.0,89,30.04,2.0,NE,11.5,-,0.02,Rain,Rain,40,2014-03-04 22:04:00
4:29 PM,45.0,42.1,90,30.07,3.0,ENE,11.5,-,0.06,Rain,Light Rain,70,2014-03-04 22:29:00
4:39 PM,45.0,42.1,90,30.08,2.5,ENE,10.4,-,0.07,Rain,Rain,70,2014-03-04 22:39:00
4:51 PM,45.0,42.1,90,30.07,2.5,ENE,9.2,-,0.09,Rain,Light Rain,60,2014-03-04 22:51:00
5:27 PM,45.0,43.0,93,30.08,2.0,NNE,8.1,-,0.04,Rain,Light Rain,20,2014-03-04 23:27:00
5:34 PM,45.0,43.0,93,30.08,1.5,NNE,9.2,-,0.05,Rain,Light Rain,20,2014-03-04 23:34:00
5:44 PM,45.0,44.1,97,30.09,2.0,NNE,6.9,-,0.06,Rain,Rain,30,2014-03-04 23:44:00
5:51 PM,45.0,44.1,97,30.09,2.0,NE,6.9,-,0.08,Rain,Rain,40,2014-03-04 23:51:00
6:00 PM,45.0,44.1,97,30.09,3.0,NE,8.1,-,0.01,Rain,Light Rain,40,2014-03-05 00:00:00
6:09 PM,46.0,44.1,93,30.09,4.0,NNE,6.9,-,0.02,Rain,Light Rain,30,2014-03-05 00:09:00
6:17 PM,46.0,44.1,93,30.09,4.0,NNE,6.9,-,0.03,Rain,Light Rain,30,2014-03-05 00:17:00
6:39 PM,46.0,43.0,89,30.08,7.0,NE,6.9,-,0.03,Rain,Light Rain,40,2014-03-05 00:39:00
6:51 PM,46.0,43.0,89,30.09,6.0,NNE,8.1,-,0.04,Rain,Light Rain,30,2014-03-05 00:51:00
7:51 PM,46.0,44.1,93,30.10,6.0,Variable,6.9,-,0.09,Rain,Light Rain,0,2014-03-05 01:51:00
8:51 PM,46.0,43.0,89,30.08,9.0,NE,11.5,18.4,0.09,Rain,Light Rain,50,2014-03-05 02:51:00
9:02 PM,46.9,44.1,90,30.10,9.0,NE,8.1,-,0.00,Rain,Light Rain,50,2014-03-05 03:02:00
9:27 PM,46.9,44.1,90,30.09,6.0,ENE,10.4,-,0.01,Rain,Light Rain,60,2014-03-05 03:27:00
9:51 PM,46.9,44.1,90,30.12,10.0,NE,8.1,-,0.02,Rain,Light Rain,40,2014-03-05 03:51:00
10:51 PM,46.9,45.0,93,30.08,4.0,NE,9.2,-,0.08,Rain,Rain,40,2014-03-05 04:51:00
11:51 PM,48.0,46.0,93,30.09,6.0,NE,6.9,-,0.13,Rain,Light Rain,50,2014-03-05 05:51:00